SP8AQK-13 Weather Reports


time (UTC)temp
C
wind
direction
speed
KPH
gust
KPH
rain 1hr
cm
rain 24hr
cm
rain mn
cm
humidity
%
barometer
mb
20260506120247 26 0.0 0.0 0.00 0.00 0.00 37 1008.5
20260506114247 26 0.0 0.0 0.00 0.00 0.00 38 1008.6
20260506112246 26 0.0 0.0 0.00 0.00 0.00 36 1008.6
20260506110245 26 0.0 0.0 0.00 0.00 0.00 37 1008.6
20260506104244 25 0.0 0.0 0.00 0.00 0.00 36 1008.7
20260506102243 25 0.0 0.0 0.00 0.00 0.00 36 1008.7
20260506094242 23 0.0 0.0 0.00 0.00 0.00 38 1008.8
20260506090241 23 0.0 0.0 0.00 0.00 0.00 40 1008.6
20260506084240 22 0.0 0.0 0.00 0.00 0.00 41 1008.7
20260506082239 22 0.0 0.0 0.00 0.00 0.00 42 1008.6
20260506080238 22 0.0 0.0 0.00 0.00 0.00 42 1008.5
20260506072237 21 0.0 0.0 0.00 0.00 0.00 43 1008.7
20260506070236 21 0.0 0.0 0.00 0.00 0.00 45 1008.5
20260506062235 22 0.0 0.0 0.00 0.00 0.00 42 1008.4
20260506060234 21 0.0 0.0 0.00 0.00 0.00 42 1008.7
20260506050232 17 0.0 0.0 0.00 0.00 0.00 49 1009.3
20260506044231 15 0.0 0.0 0.00 0.00 0.00 52 1009.5
20260506042230 15 0.0 0.0 0.00 0.00 0.00 53 1009.7
20260506040230 13 0.0 0.0 0.00 0.00 0.00 52 1010.0
20260506034229 13 0.0 0.0 0.00 0.00 0.00 51 1009.7
20260506032228 13 0.0 0.0 0.00 0.00 0.00 50 1009.8
20260506030228 13 0.0 0.0 0.00 0.00 0.00 52 1010.1
20260506024227 12 0.0 0.0 0.00 0.00 0.00 52 1010.0
20260506022226 11 0.0 0.0 0.00 0.00 0.00 58 1010.2
20260506020225 11 0.0 0.0 0.00 0.00 0.00 61 1010.3
20260506014225 11 0.0 0.0 0.00 0.00 0.00 59 1010.2
20260506012224 11 0.0 0.0 0.00 0.00 0.00 59 1010.2
20260506010223 11 0.0 0.0 0.00 0.00 0.00 62 1010.3
20260506004222 12 0.0 0.0 0.00 0.00 0.00 56 1010.2
20260506002222 13 0.0 0.0 0.00 0.00 0.00 49 1009.9
20260506000221 15 0.0 0.0 0.00 0.00 0.00 46 1009.8
20260505234220 16 0.0 0.0 0.00 0.00 0.00 42 1009.5
20260505232219 16 0.0 0.0 0.00 0.00 0.00 41 1009.4
20260505230219 16 0.0 0.0 0.00 0.00 0.00 42 1009.5
20260505224218 14 0.0 0.0 0.00 0.00 0.00 46 1009.8
20260505222217 13 0.0 0.0 0.00 0.00 0.00 48 1010.0
20260505220216 13 0.0 0.0 0.00 0.00 0.00 49 1010.0
20260505214216 13 0.0 0.0 0.00 0.00 0.00 51 1010.2
20260505212215 13 0.0 0.0 0.00 0.00 0.00 56 1010.4
20260505210214 13 0.0 0.0 0.00 0.00 0.00 53 1010.3
20260505204214 15 0.0 0.0 0.00 0.00 0.00 47 1010.1
20260505202213 17 0.0 0.0 0.00 0.00 0.00 40 1009.9
20260505200212 17 0.0 0.0 0.00 0.00 0.00 39 1009.8
20260505194211 18 0.0 0.0 0.00 0.00 0.00 38 1009.6
20260505192211 19 0.0 0.0 0.00 0.00 0.00 37 1009.5
20260505184209 20 0.0 0.0 0.00 0.00 0.00 35 1009.2
20260505182208 21 0.0 0.0 0.00 0.00 0.00 35 1009.1
20260505180208 21 0.0 0.0 0.00 0.00 0.00 34 1009.0
20260505174207 22 0.0 0.0 0.00 0.00 0.00 32 1008.9
20260505172207 23 0.0 0.0 0.00 0.00 0.00 30 1008.8
20260505170205 23 0.0 0.0 0.00 0.00 0.00 32 1008.8
20260505164205 23 0.0 0.0 0.00 0.00 0.00 30 1008.7
20260505162204 24 0.0 0.0 0.00 0.00 0.00 29 1008.8
20260505160203 25 0.0 0.0 0.00 0.00 0.00 25 1008.7
20260505152202 25 0.0 0.0 0.00 0.00 0.00 27 1008.9
20260505150201 26 0.0 0.0 0.00 0.00 0.00 27 1009.0
20260505140159 27 0.0 0.0 0.00 0.00 0.00 27 1009.4
20260505130157 28 0.0 0.0 0.00 0.00 0.00 25 1009.7
20260505124156 28 0.0 0.0 0.00 0.00 0.00 25 1010.1
20260505122155 27 0.0 0.0 0.00 0.00 0.00 26 1010.2